Weather in Bogoslovka

Russia / Belgorod Oblast     51°07′10″N   37°30′34″E
temp.,
°C
wind,
m/s
gust,
m/s
humid.,
%
clouds,
%
prec.,
mm/h
press.,
hPa
HPBL,
m
24 september, fri
fri2400:00+7sw269094 0.6 1012281
03:00+7ssw2489100 0.6 1011146
06:00+7ssw3592100 0.1 1010152
09:00+8ssw4686100 0.4 1010367
12:00+12ssw71058100 0.1 10081742
15:00+12s71052100 0.2 10061707
18:00+9ssw71179100 0.2 10061198
21:00+8s61087100 0.8 10061144
25 september, sat
sat2500:00+8s61291100 0.9 1005724
03:00+8sse4895100 1.9 1005450
06:00+8s359699 1.0 1006326
09:00+10ssw228566 1.0 1008457
12:00+13wsw447067 0.4 1009956
15:00+15wsw455556 0.6 10091427
18:00+12w476941 0.1 1011228
21:00+10w376888 0.1 1012139
26 september, sun
sun2600:00+10wsw4986100 0.1 1012419
03:00+10sw51090100 0.4 1011552
06:00+10wsw6129288 0.2 1010487
09:00+12wnw71284100 0.6 1009823
12:00+12nw81175100 0.1 10101180
15:00+13nw9126199 0.2 10111504
18:00+11nw7126563 0.0 1012978
21:00+9nw6127547 0.1 1013779
27 september, mon
mon2700:00+7nw7148586 0.0 1014687
03:00+8nw71282100 0.1 1015790
06:00+9nnw71284100 0.0 1016769
09:00+10n6980100 0.1 1017640
12:00+13nne676674 0.1 10191078
15:00+13nne666283 0.4 10201204
18:00+12n4662100 0.0 1021301
21:00+11nne486899 0.0 1022514
28 september, tue
tue2800:00+7n3688100 0.0 1024123
03:00+7nne249589 0.0 102476
06:00+8n2590100 0.1 1025199
09:00+9ne4789100 0.3 1026350
12:00+10ne4477100 0.0 1027562
15:00+12ne446184 0.0 10271162
18:00+10ene477228 0.1 1028258
21:00+7ne378874 0.1 1030125